• In Moldova, Republic
  • List of Countries
  • For 7 days
  • Water Temperature
  • Satellite Maps
  • Weather Map
  • Weather Widgets
  • user-avatar
    Login

    Hourly Weather Adelaide

    Today, 21 February, Tuesday

    Time Temperature Precipitation Wind Pressure Humidity
    00:00 +14°C° 0 mm 2 mps 760 mmHg 69%
    01:00 +14°C° 0 mm 2 mps 760 mmHg 70%
    02:00 +13°C° 0 mm 3 mps 760 mmHg 71%
    03:00 +14°C° 0 mm 2 mps 759 mmHg 74%
    04:00 +14°C° 0 mm 2 mps 759 mmHg 72%
    05:00 +14°C° 0 mm 2 mps 759 mmHg 71%
    06:00 +13°C° 0 mm 3 mps 760 mmHg 70%
    07:00 +17°C° 0 mm 3 mps 760 mmHg 59%
    08:00 +20°C° 0 mm 3 mps 760 mmHg 49%
    09:00 +24°C° 0 mm 3 mps 760 mmHg 37%
    10:00 +26°C° 0 mm 3 mps 759 mmHg 34%
    11:00 +28°C° 0 mm 3 mps 759 mmHg 30%
    12:00 +30°C° 0 mm 2 mps 758 mmHg 27%
    13:00 +31°C° 0 mm 2 mps 757 mmHg 26%
    14:00 +31°C° 0 mm 2 mps 757 mmHg 25%
    15:00 +32°C° 0 mm 2 mps 756 mmHg 24%
    16:00 +31°C° 0 mm 2 mps 756 mmHg 27%
    17:00 +29°C° 0 mm 1 mps 755 mmHg 30%
    18:00 +28°C° 0 mm 1 mps 755 mmHg 33%
    19:00 +27°C° 0 mm 2 mps 755 mmHg 33%
    20:00 +26°C° 0 mm 3 mps 755 mmHg 34%
    21:00 +24°C° 0 mm 3 mps 755 mmHg 34%
    22:00 +25°C° 0 mm 4 mps 754 mmHg 32%
    23:00 +25°C° 0 mm 5 mps 754 mmHg 29%

    Tomorrow, 22 February, Wednesday

    Time Temperature Precipitation Wind Pressure Humidity
    00:00 +26°C° 0 mm 6 mps 754 mmHg 26%
    01:00 +25°C° 0 mm 5 mps 753 mmHg 27%
    02:00 +25°C° 0 mm 5 mps 752 mmHg 28%
    03:00 +25°C° 0 mm 5 mps 752 mmHg 29%
    04:00 +25°C° 0 mm 5 mps 752 mmHg 29%
    05:00 +26°C° 0 mm 5 mps 752 mmHg 29%
    06:00 +26°C° 0 mm 6 mps 752 mmHg 29%
    07:00 +28°C° 0 mm 6 mps 752 mmHg 26%
    08:00 +30°C° 0 mm 7 mps 753 mmHg 24%
    09:00 +33°C° 0 mm 7 mps 753 mmHg 21%
    10:00 +32°C° 0 mm 7 mps 753 mmHg 27%
    11:00 +30°C° 0 mm 7 mps 753 mmHg 33%
    12:00 +30°C° 0 mm 6 mps 753 mmHg 39%
    13:00 +29°C° 0 mm 6 mps 753 mmHg 39%
    14:00 +29°C° 0 mm 6 mps 753 mmHg 38%
    15:00 +28°C° 0 mm 6 mps 754 mmHg 37%
    16:00 +27°C° 0 mm 5 mps 754 mmHg 41%
    17:00 +26°C° 0 mm 5 mps 755 mmHg 44%
    18:00 +23°C° 0 mm 5 mps 755 mmHg 48%
    19:00 +22°C° 0 mm 5 mps 756 mmHg 55%
    20:00 +21°C° 0 mm 5 mps 757 mmHg 61%
    21:00 +20°C° 0 mm 5 mps 758 mmHg 68%
    22:00 +20°C° 0 mm 4 mps 758 mmHg 70%
    23:00 +19°C° 0 mm 4 mps 758 mmHg 71%

    Day after tomorrow, 23 February, Thursday

    Time Temperature Precipitation Wind Pressure Humidity
    00:00 +19°C° 0 mm 4 mps 758 mmHg 72%
    01:00 +19°C° 0 mm 4 mps 758 mmHg 74%
    02:00 +18°C° 0 mm 4 mps 758 mmHg 75%
    03:00 +18°C° 0 mm 4 mps 758 mmHg 76%
    04:00 +18°C° 0 mm 3 mps 759 mmHg 76%
    05:00 +18°C° 0 mm 3 mps 759 mmHg 76%
    06:00 +18°C° 0 mm 3 mps 760 mmHg 77%
    07:00 +19°C° 0 mm 3 mps 760 mmHg 69%
    08:00 +20°C° 0 mm 2 mps 761 mmHg 62%
    09:00 +21°C° 0 mm 2 mps 761 mmHg 55%
    10:00 +23°C° 0 mm 2 mps 761 mmHg 51%
    11:00 +25°C° 0 mm 3 mps 761 mmHg 46%
    12:00 +26°C° 0 mm 3 mps 761 mmHg 41%
    13:00 +26°C° 0 mm 3 mps 761 mmHg 41%
    14:00 +26°C° 0 mm 4 mps 761 mmHg 41%
    15:00 +26°C° 0 mm 4 mps 761 mmHg 41%
    16:00 +25°C° 0 mm 4 mps 761 mmHg 46%
    17:00 +22°C° 0 mm 4 mps 762 mmHg 50%
    18:00 +21°C° 0 mm 4 mps 762 mmHg 55%
    19:00 +20°C° 0 mm 4 mps 763 mmHg 61%
    20:00 +19°C° 0 mm 4 mps 763 mmHg 67%
    21:00 +18°C° 0 mm 3 mps 764 mmHg 73%
    22:00 +17°C° 0 mm 3 mps 764 mmHg 76%
    23:00 +17°C° 0 mm 3 mps 764 mmHg 79%

    24 February, Friday

    Time Temperature Precipitation Wind Pressure Humidity
    00:00 +16°C° 0 mm 3 mps 764 mmHg 81%
    01:00 +16°C° 0 mm 3 mps 764 mmHg 83%
    02:00 +14°C° 0 mm 3 mps 764 mmHg 85%
    03:00 +14°C° 0 mm 3 mps 764 mmHg 86%
    04:00 +14°C° 0 mm 3 mps 764 mmHg 86%
    05:00 +14°C° 0 mm 3 mps 765 mmHg 86%
    06:00 +14°C° 0 mm 3 mps 765 mmHg 85%
    07:00 +17°C° 0 mm 3 mps 765 mmHg 75%
    08:00 +18°C° 0 mm 3 mps 766 mmHg 65%
    09:00 +20°C° 0 mm 3 mps 766 mmHg 55%
    10:00 +22°C° 0 mm 3 mps 766 mmHg 51%
    11:00 +23°C° 0 mm 4 mps 765 mmHg 46%
    12:00 +25°C° 0 mm 4 mps 765 mmHg 42%
    13:00 +25°C° 0 mm 5 mps 765 mmHg 43%
    14:00 +25°C° 0 mm 5 mps 764 mmHg 44%
    15:00 +24°C° 0 mm 6 mps 764 mmHg 45%
    16:00 +22°C° 0 mm 6 mps 764 mmHg 50%
    17:00 +21°C° 0 mm 6 mps 765 mmHg 55%
    18:00 +20°C° 0 mm 6 mps 765 mmHg 60%
    19:00 +19°C° 0 mm 5 mps 765 mmHg 65%
    20:00 +17°C° 0 mm 5 mps 766 mmHg 69%
    21:00 +16°C° 0 mm 5 mps 766 mmHg 74%
    22:00 +15°C° 0 mm 4 mps 766 mmHg 75%
    23:00 +15°C° 0 mm 4 mps 766 mmHg 77%

    25 February, Saturday

    Time Temperature Precipitation Wind Pressure Humidity
    00:00 +15°C° 0 mm 4 mps 765 mmHg 78%
    01:00 +15°C° 0 mm 4 mps 765 mmHg 79%
    02:00 +15°C° 0 mm 4 mps 765 mmHg 79%
    03:00 +14°C° 0 mm 4 mps 765 mmHg 79%
    04:00 +14°C° 0 mm 4 mps 765 mmHg 79%
    05:00 +14°C° 0 mm 4 mps 766 mmHg 79%
    06:00 +14°C° 0 mm 4 mps 766 mmHg 78%
    07:00 +17°C° 0 mm 4 mps 766 mmHg 70%
    08:00 +18°C° 0 mm 4 mps 766 mmHg 62%
    09:00 +20°C° 0 mm 4 mps 766 mmHg 54%
    10:00 +22°C° 0 mm 4 mps 766 mmHg 49%
    11:00 +23°C° 0 mm 4 mps 765 mmHg 44%
    12:00 +26°C° 0 mm 4 mps 765 mmHg 40%
    13:00 +26°C° 0 mm 4 mps 764 mmHg 40%
    14:00 +26°C° 0 mm 5 mps 764 mmHg 41%
    15:00 +26°C° 0 mm 5 mps 763 mmHg 41%
    16:00 +23°C° 0 mm 5 mps 763 mmHg 47%
    17:00 +22°C° 0 mm 5 mps 763 mmHg 53%
    18:00 +20°C° 0 mm 5 mps 763 mmHg 59%
    19:00 +19°C° 0 mm 5 mps 764 mmHg 64%
    20:00 +17°C° 0 mm 5 mps 764 mmHg 69%
    21:00 +17°C° 0 mm 4 mps 764 mmHg 74%
    22:00 +17°C° 0 mm 4 mps 764 mmHg 74%
    23:00 +17°C° 0 mm 4 mps 763 mmHg 73%

    26 February, Sunday

    Time Temperature Precipitation Wind Pressure Humidity
    00:00 +17°C° 0 mm 3 mps 763 mmHg 73%
    01:00 +16°C° 0 mm 3 mps 763 mmHg 69%
    02:00 +16°C° 0 mm 3 mps 763 mmHg 66%
    03:00 +16°C° 0 mm 3 mps 763 mmHg 63%
    04:00 +14°C° 0 mm 3 mps 763 mmHg 62%
    05:00 +14°C° 0 mm 3 mps 763 mmHg 62%
    06:00 +14°C° 0 mm 3 mps 764 mmHg 61%
    07:00 +17°C° 0 mm 2 mps 764 mmHg 52%
    08:00 +20°C° 0 mm 2 mps 764 mmHg 43%
    09:00 +23°C° 0 mm 2 mps 764 mmHg 34%
    10:00 +25°C° 0 mm 2 mps 763 mmHg 30%
    11:00 +27°C° 0 mm 2 mps 762 mmHg 26%
    12:00 +29°C° 0 mm 3 mps 762 mmHg 23%
    13:00 +29°C° 0 mm 3 mps 761 mmHg 23%
    14:00 +29°C° 0 mm 3 mps 761 mmHg 23%
    15:00 +29°C° 0 mm 4 mps 760 mmHg 23%
    16:00 +28°C° 0 mm 4 mps 760 mmHg 27%
    17:00 +26°C° 0 mm 4 mps 760 mmHg 32%
    18:00 +25°C° 0 mm 4 mps 760 mmHg 36%
    19:00 +22°C° 0 mm 4 mps 761 mmHg 43%
    20:00 +20°C° 0 mm 3 mps 761 mmHg 50%
    21:00 +19°C° 0 mm 3 mps 761 mmHg 57%
    22:00 +18°C° 0 mm 3 mps 761 mmHg 60%
    23:00 +18°C° 0 mm 3 mps 761 mmHg 64%
    Show more